Skip Page Navigation
NASA JPL Caltech
NASA Logo - Jet Propulsion Laboratory + View the NASA Portal
+ Near-Earth Object (NEO) Program
Search JPL
JPL Home Earth Solar System Stars & Galaxies Technology
JPL Solar System Dynamics
BODIES ORBITS EPHEMERIDES TOOLS PHYSICAL DATA DISCOVERY FAQ SITE MAP
JPL Small-Body Database Browser
Search: [ help ]  
9963 Sandage (1992 AN)
Classification: Main-belt Asteroid          SPK-ID: 2009963
Ephemeris | Orbit Diagram | Orbital Elements | Physical Parameters | Discovery Circumstances ]

[ hide orbit diagram ]
Orbit Diagram
Note: Make sure you have Java enabled on your browser to see the applet. This applet is provided as a 3D orbit visualization tool. The applet was implemented using 2-body methods, and hence should not be used for determining accurate long-term trajectories (over several years or decades) or planetary encounter circumstances. For accurate long-term ephemerides, please instead use our Horizons system.
Orbit Viewer

Additional Notes: the orbits shown in the applet are color coded. The planets are white lines, and the asteroid/comet is a blue line. The bright white line indicates the portion of the orbit that is above the ecliptic plane, and the darker portion is below the ecliptic plane. Likewise for the asteroid/comet orbit, the light blue indicates the portion above the ecliptic plane, and the dark blue the portion below the ecliptic plane.

Orbit Viewer applet originally written and kindly provided by Osamu Ajiki (AstroArts), and further modified by Ron Baalke (JPL).


Orbital Elements at Epoch 2456400.5 (2013-Apr-18.0) TDB
Reference: MPO253434 (heliocentric ecliptic J2000)
 Element Value Uncertainty (1-sigma)   Units 
e 0.2800750 n/a  
a 2.3423002 n/a AU
q 1.6862805 n/a AU
i 23.45351 n/a deg
node 116.97257 n/a deg
peri 241.35187 n/a deg
M 52.11618 n/a deg
tp 2456210.9462674
(2012-Oct-10.44626740)
n/a JED
period 1309.3696382
3.58
n/a
n/a
d
yr
n 0.27494146 n/a deg/d
Q 2.9983199 n/a AU
  Orbit Determination Parameters
   # obs. used (total)      770  
   first obs. used      1989-??-??  
   last obs. used      2013-02-10  
   # oppositions      15  
   planetary ephem.      DE403  
   condition code      0  
   fit RMS      0.51  
   data source      MPC:mpn  
   producer      MPCLINUX  

Additional Information
 T_jup = 3.403 

Ephemeris | Orbit Diagram | Orbital Elements | Physical Parameters | Discovery Circumstances ]

Physical Parameter Table
Parameter Symbol Value Units Sigma Reference Notes
absolute magnitude H 13.6 mag n/a PDS3 (MPC 33662)  

9963 Sandage           Discovered 1992 Jan. 9 by E. F. Helin at Palomar.
Allan Sandage (b. 1926), a distinguished American astronomer of Palomar and Mt. Wilson fame, is an international authority in stellar astronomy and observational cosmology. The name was suggested by S. Kientz and endorsed by the discoverer, who first met Sandage at Palomar in the early 1970s.
NOTE: some special characters may not display properly (any characters within {} are an attempt to place the proper accent above a character)
Reference: 20010902/MPCPages.arcLast Updated: 2009-05-11

Alternate Designations
 1992 AN = 1976 NH = 1989 CK6 
Ephemeris | Orbit Diagram | Orbital Elements | Physical Parameters | Discovery Circumstances ]
ABOUT SSD CREDITS/AWARDS PRIVACY/COPYRIGHT GLOSSARY LINKS
FirstGov 2013-May-26 03:44 UT
(server date/time)  
NASA Home Page
Site Manager:   Donald K. Yeomans
Webmaster  Alan B. Chamberlin